Flag for Mexico Weather past 2 weeks in Campeche, Campeche, Mexico

Now
75 °F

Clear.


Feels Like: 75 °F
Forecast: 79 / 94 °F
Wind: 6 mph from Southeast

Location: Aerop. Internacional Merida - Yuc

Current Time: Aug 1, 2014 at 5:21:22 AM

Latest Report: Aug 1, 2014 at 3:47 AM


Visibility: 7 mi

Pressure: 29.95 "Hg

Humidity: 83%

Dew point: 70 °F

Location of CampecheLocation

Historic Weather in Campeche — Graph

°F

Campeche temperature yesterday

Maximum temperature yesterday: 93 °F (at 1:42 PM)
Minimum temperature yesterday: 75 °F (at 4:51 AM)
Average temperature yesterday: 83 °F

Past Weeks' High & Low Weather Summary

 TemperatureHumidityPressure
High95 °F (Jul 19, 3:49 PM)100% (Jul 17, 3:52 AM)30.10 "Hg (Jul 17, 3:52 AM)
Low72 °F (Jul 30, 4:45 AM)34% (Jul 26, 12:48 PM)29.89 "Hg (Jul 17, 5:52 PM)
Average83 °F71%30.00 "Hg
* Reported Jul 17 3:52 AM — Aug 1 3:47 AM, Campeche, Weather by CustomWeather, © 2014

Note: Actual official high and low records may vary slightly from our data, if they occured in-between our weather recording intervals... More about our weather records

Advertising

Campeche weather history for previous 24 hours

 ConditionsComfort  
Time TempWeatherWind HumidityBarometerVisibility
3:47 AM
Aug 1
75 °FClear.6 mph83%29.95 "Hg7 mi
2:45 AM77 °FClear.6 mph83%29.95 "Hg7 mi
1:45 AM79 °FClear.5 mph79%29.96 "Hg7 mi
12:49 AM79 °FClear.7 mph79%29.97 "Hg7 mi
11:45 PM
Jul 31
79 °FClear.6 mph74%29.98 "Hg7 mi
10:45 PM81 °FClear.5 mph74%29.98 "Hg7 mi
9:48 PM81 °FClear.6 mph66%29.99 "Hg7 mi
8:42 PM82 °FClear.6 mph58%29.95 "Hg7 mi
6:51 PM88 °FScattered clouds.9 mph52%29.95 "Hg6 mi
5:54 PM91 °FScattered clouds.12 mph46%29.92 "Hg6 mi
3:53 PM84 °FBroken clouds.6 mph55%30.09 "Hg6 mi
2:47 PM91 °FPartly sunny.5 mph46%29.94 "Hg6 mi
1:42 PM93 °FPartly sunny.6 mph47%29.96 "Hg7 mi
12:47 PM91 °FPartly sunny.No wind52%29.97 "Hg7 mi
9:42 AM84 °FPassing clouds.7 mph70%29.95 "Hg7 mi
8:47 AM82 °FSunny.7 mph74%29.99 "Hg6 mi
6:48 AM75 °FClear.5 mph94%29.97 "Hg5 mi
5:51 AM75 °FClear.3 mph94%29.97 "Hg6 mi
Weather by CustomWeather, © 2014

See weather overviewHow to use our weather pages